Location: Pcim
(49.7500°N, 19.9670°E)
Time: 21:06:35
(UTC+02:00)

CUTE 1.7 + AOD 2 - Pass Details

Date: 28 April 2024
Orbit: 569 x 586 km, 97.8° (Epoch: 25 May)

Event Time Altitude Azimuth Distance (km) Brightness Sun altitude
Rises 04:06:48 0° 16° (NNE) 2,789 ? -11.2°
Reaches altitude 10° 04:08:59 10° 20° (NNE) 1,884 ? -11.0°
Maximum altitude 04:13:01 60° 101° (E) 659 ? -10.4°
Drops below altitude 10° 04:17:01 10° 182° (S) 1,866 ? -9.9°
Enters shadow 04:18:39 - 185° (S) 2,542 ? -9.7°
